Location: 10021 Water Well
(34.6656°N, 106.1556°W)
Time: 07:24:26
(UTC+00:00)

Daily predictions for brighter satellites

Satellite Brightness Start Highest point End
(mag) Time Altitude Azimuth Time Altitude Azimuth Time Altitude Azimuth
BREEZE-M DEB (TANK) 1.4 12:05:26 38° NW 12:06:14 68° NNE 12:08:22 10° ESE
ADEOS 3.7 12:01:13 10° N 12:06:16 51° WNW 12:11:18 10° SSW
Cosmos 1484 Rocket 3.0 12:03:09 10° N 12:06:47 42° WNW 12:10:20 10° SW
OE (NEXTSAT) 4.4 12:06:48 25° SW 12:08:41 78° SE 12:12:10 10° ENE
Intercosmos 24 3.7 12:11:18 10° NNW 12:14:48 50° W 12:18:22 10° S
Cosmos 2278 4.0 12:11:23 10° NNW 12:17:01 68° ENE 12:22:37 10° SSE
Cosmos 2026 Rocket 4.0 12:12:12 10° S 12:18:33 77° W 12:24:57 10° N
Cosmos 1833 Rocket 3.8 12:17:49 19° W 12:19:33 22° WNW 12:23:52 10° N
Cosmos 1689 Rocket 2.6 12:17:17 10° SSE 12:20:10 60° ENE 12:23:03 10° N
Gblst 52 Del rocket 4.3 12:15:47 10° SW 12:21:20 83° SE 12:27:29 10° NE
ASTRO F (AKARI) 4.5 12:19:36 10° NNE 12:23:04 81° ESE 12:26:20 10° S
Meteor PRIRODA 3.6 12:19:24 10° NNE 12:23:04 89° W 12:26:44 10° SSW
Cosmos 44 Rocket 4.3 12:25:05 14° WNW 12:28:43 29° WSW 12:33:07 10° S
CZ-4B R/B 2.9 12:24:45 10° N 12:28:49 65° WNW 12:33:05 10° SSW
Meteor 1-31 Rocket 3.6 12:27:47 10° N 12:31:15 30° WNW 12:34:40 10° SW
ATLAS 3B R/B 3.4 12:26:50 11° WSW 12:32:08 30° NW 12:37:54 10° NNE
Cosmos 1726 Rocket 3.7 12:27:54 10° NNW 12:32:13 50° W 12:36:31 10° SSW
Meteor 1-24 Rocket 4.2 12:28:24 10° SW 12:33:31 38° WNW 12:38:51 10° N
Cosmos 1455 4.3 12:33:27 10° NNE 12:36:55 31° E 12:40:21 10° SE
ARGOS Delta rocket 4.4 12:32:06 10° N 12:37:15 45° WNW 12:42:26 10° SW
USA 290 4.0 12:38:00 14° WNW 12:38:25 14° WNW 12:40:12 10° NNW
Cosmos 2228 3.9 12:36:08 10° NNW 12:39:53 29° W 12:43:39 10° SSW
Cosmos 2369 4.0 12:35:10 10° NW 12:40:31 45° WSW 12:45:51 10° S
Cosmos 2082 Rocket 3.1 12:36:20 10° WSW 12:40:57 26° WNW 12:45:36 10° N
ATLAS CENTAUR R/B 1.8 12:37:22 10° SSW 12:41:21 63° ESE 12:45:09 10° NE
ADEOS Rocket 4.2 12:38:33 10° SW 12:41:33 15° W 12:44:33 10° WNW
Cosmos 1992 Rocket 4.2 12:37:23 10° NNW 12:42:23 47° WSW 12:47:21 10° S
PSLV R/B 4.0 12:42:21 10° NNE 12:46:29 84° ESE 12:50:34 10° S
YAOGAN 6 4.1 12:43:49 10° NNE 12:47:20 43° E 12:50:48 10° S
ERS-2 4.0 12:48:27 10° WSW 12:50:04 12° W 12:51:41 10° WNW
COSMO-SKYMED 1 2.8 12:45:57 10° S 12:50:08 48° W 12:54:20 10° NNW
ALOS 3.7 12:47:15 10° NNW 12:50:17 18° WNW 12:53:21 10° WSW
SL-16 R/B 3.8 12:49:52 10° N 12:55:06 37° ENE 13:00:17 10° SE
Meteor 2-1 Rocket 4.4 12:55:57 10° N 13:01:41 84° E 13:07:29 10° S
